FW1304 Weather Reports


Display with metric or nautical units.
time (UTC)temp
F
wind
direction
speed
MPH
gust
MPH
rain 1hr
in
rain 24hr
in
rain mn
in
humidity
%
barometer
mb
20260905093905 64 86 0.0 0.0 0.00 0.00 0.00 88 1013.0
20260905093317 64 144 0.0 0.0 0.00 0.00 0.00 88 1013.2
20260905092838 64 85 0.0 0.0 0.00 0.00 0.00 88 1013.1
20260905092349 64 86 0.0 0.0 0.00 0.00 0.00 88 1013.1
20260905091837 64 11 0.0 0.0 0.00 0.00 0.00 88 1013.2
20260905091323 64 103 0.0 1.0 0.00 0.00 0.00 88 1013.4
20260905090818 64 103 0.0 1.0 0.00 0.00 0.00 88 1013.4
20260905090329 64 57 0.0 0.0 0.00 0.00 0.00 88 1013.5
20260905085844 64 99 0.0 1.0 0.00 0.00 0.00 88 1013.5
20260905085318 64 67 0.0 1.0 0.00 0.00 0.00 88 1013.7
20260905084816 64 49 0.0 0.0 0.00 0.00 0.00 88 1013.8
20260905084332 64 42 0.0 0.0 0.00 0.00 0.00 88 1013.9
20260905083835 65 74 0.0 0.0 0.00 0.00 0.00 88 1013.9
20260905083338 65 76 0.0 0.0 0.00 0.00 0.00 88 1013.9
20260905082826 65 127 0.0 0.0 0.00 0.00 0.00 88 1013.9
20260905082329 65 86 0.0 0.0 0.00 0.00 0.00 88 1014.0
20260905081842 65 84 0.0 0.0 0.00 0.00 0.00 88 1014.1
20260905081330 65 27 0.0 1.0 0.00 0.00 0.00 88 1014.1
20260905080828 65 33 0.0 1.0 0.00 0.00 0.00 88 1014.1
20260905080338 65 55 0.0 0.0 0.00 0.00 0.00 88 1014.1
20260905075830 65 46 0.0 0.0 0.00 0.00 0.00 88 1014.1
20260905075402 65 43 0.0 0.0 0.00 0.00 0.00 88 1014.0
20260905074840 65 25 0.0 1.0 0.00 0.00 0.00 88 1014.0
20260905074328 65 103 0.0 0.0 0.00 0.00 0.00 88 1013.9
20260905073831 65 34 0.0 1.0 0.00 0.00 0.00 88 1014.0
20260905073404 65 57 0.0 0.0 0.00 0.00 0.00 88 1014.0
20260905072823 65 51 0.0 0.0 0.00 0.00 0.00 88 1014.0
20260905072334 65 122 0.0 1.0 0.00 0.00 0.00 88 1014.0
20260905071816 65 42 0.0 2.0 0.00 0.00 0.00 88 1013.9
20260905071355 65 57 0.0 2.0 0.00 0.00 0.00 88 1013.9
20260905070816 65 49 0.0 2.0 0.00 0.00 0.00 88 1014.0
20260905070319 65 34 0.0 0.0 0.00 0.00 0.00 88 1013.9
20260905065835 65 44 0.0 0.0 0.00 0.00 0.00 88 1014.0
20260905065334 65 40 0.0 0.0 0.00 0.00 0.00 88 1014.0
20260905064816 65 11 0.0 0.0 0.00 0.00 0.00 88 1013.8
20260905064329 65 49 0.0 1.0 0.00 0.00 0.00 88 1013.7
20260905063902 65 355 0.0 1.0 0.00 0.00 0.00 88 1013.8
20260905063341 65 44 0.0 0.0 0.00 0.00 0.00 88 1013.8
20260905062826 65 29 0.0 0.0 0.00 0.00 0.00 88 1013.8
20260905062329 65 28 0.0 2.0 0.00 0.00 0.00 88 1013.8
20260905061833 65 44 0.0 2.0 0.00 0.00 0.00 88 1013.9
20260905061321 65 9 0.0 0.0 0.00 0.00 0.00 88 1013.9
20260905060823 65 49 0.0 0.0 0.00 0.00 0.00 88 1013.9
20260905060335 65 51 0.0 1.0 0.00 0.00 0.00 88 1014.0
20260905055819 65 31 0.0 1.0 0.00 0.00 0.00 88 1014.0
20260905055318 65 34 0.0 0.0 0.00 0.00 0.00 88 1014.0
20260905054820 65 115 0.0 4.0 0.00 0.00 0.00 88 1014.1
20260905054336 66 25 0.0 4.0 0.00 0.00 0.00 88 1014.1
20260905053839 66 59 0.0 1.0 0.00 0.00 0.00 88 1014.0
20260905053338 66 74 0.0 1.0 0.00 0.00 0.00 88 1013.9
20260905052854 66 80 0.0 0.0 0.00 0.00 0.00 88 1014.0
20260905052336 66 81 0.0 1.0 0.00 0.00 0.00 88 1013.9
20260905051840 66 44 0.0 2.0 0.00 0.00 0.00 88 1013.9
20260905051322 66 69 0.0 2.0 0.00 0.00 0.00 88 1013.8
20260905050824 66 32 0.0 0.0 0.00 0.00 0.00 88 1013.7
20260905050357 66 49 0.0 0.0 0.00 0.00 0.00 88 1013.8
20260905045837 66 84 0.0 1.0 0.00 0.00 0.00 88 1013.8
20260905045339 66 51 0.0 1.0 0.00 0.00 0.00 88 1013.7
20260905044820 66 117 0.0 4.0 0.00 0.00 0.00 88 1013.6
20260905044333 66 48 0.0 4.0 0.00 0.00 0.00 88 1013.5
20260905043833 66 76 0.0 0.0 0.00 0.00 0.00 88 1013.5
20260905043336 66 34 0.0 4.0 0.00 0.00 0.00 88 1013.7
20260905042857 66 56 0.0 4.0 0.00 0.00 0.00 87 1013.7
20260905042339 66 29 0.0 2.0 0.00 0.00 0.00 87 1013.6
20260905041837 66 78 0.0 2.0 0.00 0.00 0.00 87 1013.6
20260905041350 67 43 0.0 0.0 0.00 0.00 0.00 87 1013.5
20260905040842 67 107 0.0 0.0 0.00 0.00 0.00 87 1013.6
20260905040344 67 26 0.0 0.0 0.00 0.00 0.00 87 1013.6
20260905035903 67 38 0.0 1.0 0.00 0.00 0.00 87 1013.7
20260905035323 67 36 0.0 1.0 0.00 0.00 0.00 87 1013.7
20260905034855 67 98 0.0 1.0 0.00 0.00 0.00 87 1013.6
20260905034319 67 51 0.0 1.0 0.00 0.00 0.00 86 1013.7
20260905033817 68 30 0.0 1.0 0.00 0.00 0.00 86 1013.7
20260905033319 68 40 0.0 0.0 0.00 0.00 0.00 86 1013.7
20260905032826 68 33 0.0 0.0 0.00 0.00 0.00 86 1013.5
20260905032329 68 67 0.0 1.0 0.00 0.00 0.00 85 1013.5
20260905031843 68 64 0.0 1.0 0.00 0.00 0.00 85 1013.3
20260905031325 69 61 0.0 1.0 0.00 0.00 0.00 85 1013.3
20260905030839 69 44 0.0 1.0 0.00 0.00 0.00 85 1013.4
20260905030320 69 51 0.0 2.0 0.00 0.00 0.00 84 1013.4
20260905025835 69 36 0.0 2.0 0.00 0.00 0.00 84 1013.3
20260905025403 70 52 0.0 2.0 0.00 0.00 0.00 84 1013.3
20260905024816 70 47 0.0 2.0 0.00 0.00 0.00 83 1013.3
20260905024329 70 28 0.0 2.0 0.00 0.00 0.00 83 1013.3
20260905023857 70 37 0.0 1.0 0.00 0.00 0.00 83 1013.2
20260905023338 71 56 0.0 0.0 0.00 0.00 0.00 82 1013.1
20260905022833 71 37 0.0 4.0 0.00 0.00 0.00 82 1013.0
20260905022336 71 26 0.0 4.0 0.00 0.00 0.00 82 1013.0
20260905021840 71 88 0.0 2.0 0.00 0.00 0.00 81 1013.0
20260905021350 72 50 0.0 2.0 0.00 0.00 0.00 80 1012.9
20260905020900 72 69 0.0 4.0 0.00 0.00 0.00 80 1012.8
20260905020340 73 15 0.0 1.0 0.00 0.00 0.00 80 1012.8
20260905015822 73 48 0.0 0.0 0.00 0.00 0.00 79 1012.7
20260905015325 73 59 0.0 1.0 0.00 0.00 0.00 79 1012.7
20260905014839 74 78 0.0 4.0 0.00 0.00 0.00 78 1012.6
20260905014322 74 45 0.0 4.0 0.00 0.00 0.00 77 1012.6
20260905013825 75 28 0.0 1.0 0.00 0.00 0.00 78 1012.5
20260905013326 75 32 0.0 0.0 0.00 0.00 0.00 77 1012.4
20260905012838 76 46 0.0 0.0 0.00 0.00 0.00 76 1012.4
20260905012341 76 45 0.0 1.0 0.00 0.00 0.00 76 1012.4
20260905011844 76 38 0.0 2.0 0.00 0.00 0.00 76 1012.3
20260905011334 77 65 0.0 2.0 0.00 0.00 0.00 75 1012.2
20260905010838 77 5 0.0 2.0 0.00 0.00 0.00 74 1012.1
20260905010340 78 66 0.0 2.0 0.00 0.00 0.00 74 1012.1
20260905005859 78 34 0.0 2.0 0.00 0.00 0.00 73 1012.0
20260905005339 78 84 0.0 4.0 0.00 0.00 0.00 73 1011.9
20260905004841 79 55 0.0 4.0 0.00 0.00 0.00 73 1011.9
20260905004354 79 50 0.0 0.0 0.00 0.00 0.00 73 1011.9
20260905003831 79 37 0.0 0.0 0.00 0.00 0.00 72 1011.9
20260905003404 80 56 0.0 0.0 0.00 0.00 0.00 72 1011.8
20260905002838 80 52 0.0 1.0 0.00 0.00 0.00 71 1011.8
20260905002342 80 55 0.0 1.0 0.00 0.00 0.00 71 1011.8
20260905001838 80 28 0.0 1.0 0.00 0.00 0.00 70 1011.8
20260905001332 80 37 0.0 0.0 0.00 0.00 0.00 70 1011.7
20260905000834 81 39 0.0 1.0 0.00 0.00 0.00 70 1011.6
20260905000318 81 53 0.0 1.0 0.00 0.00 0.00 70 1011.6
20260904235904 81 99 0.0 2.0 0.00 0.00 0.00 69 1011.5
20260904235344 81 61 0.0 2.0 0.00 0.00 0.00 69 1011.4
20260904234817 81 69 0.0 0.0 0.00 0.00 0.00 70 1011.4
20260904234333 81 35 0.0 1.0 0.00 0.00 0.00 69 1011.4
20260904233902 82 24 0.0 2.0 0.00 0.00 0.00 69 1011.4
20260904233316 82 62 0.0 2.0 0.00 0.00 0.00 68 1011.4
20260904232905 82 45 0.0 1.0 0.00 0.00 0.00 68 1011.4
20260904232317 82 65 0.0 0.0 0.00 0.00 0.00 68 1011.4
20260904231840 82 103 0.0 1.0 0.00 0.00 0.00 68 1011.3
20260904231325 82 63 0.0 4.0 0.00 0.00 0.00 67 1011.3
20260904230828 83 95 0.0 4.0 0.00 0.00 0.00 66 1011.3
20260904230331 83 86 0.0 1.0 0.00 0.00 0.00 67 1011.3
20260904225843 83 26 0.0 1.0 0.00 0.00 0.00 66 1011.2
20260904225355 83 80 0.0 1.0 0.00 0.00 0.00 66 1011.2
20260904224818 83 5 0.0 1.0 0.00 0.00 0.00 66 1011.1
20260904224341 83 47 0.0 0.0 0.00 0.00 0.00 65 1011.1
20260904223839 84 51 0.0 0.0 0.00 0.00 0.00 66 1011.1
20260904223341 84 53 0.0 1.0 0.00 0.00 0.00 65 1011.0
20260904222828 84 74 0.0 1.0 0.00 0.00 0.00 65 1011.0
20260904222331 84 12 0.0 1.0 0.00 0.00 0.00 65 1010.9
20260904221858 84 67 0.0 2.0 0.00 0.00 0.00 65 1011.0
20260904221317 84 27 0.0 2.0 0.00 0.00 0.00 64 1010.8
20260904220828 84 36 0.0 1.0 0.00 0.00 0.00 64 1010.7
20260904220339 85 35 0.0 1.0 0.00 0.00 0.00 64 1010.7
20260904215822 85 42 0.0 1.0 0.00 0.00 0.00 65 1010.7
20260904215336 85 67 0.0 1.0 0.00 0.00 0.00 64 1010.6
20260904214820 84 117 0.0 0.0 0.00 0.00 0.00 65 1010.6
20260904214338 85 67 0.0 0.0 0.00 0.00 0.00 65 1010.6
20260904213837 85 41 0.0 0.0 0.00 0.00 0.00 65 1010.6
20260904213342 85 97 0.0 2.0 0.00 0.00 0.00 65 1010.7
20260904212835 85 334 0.0 2.0 0.00 0.00 0.00 64 1010.5
20260904212340 85 29 0.0 1.0 0.00 0.00 0.00 64 1010.6
20260904211821 85 28 0.0 0.0 0.00 0.00 0.00 64 1010.6
20260904211338 85 28 0.0 0.0 0.00 0.00 0.00 65 1010.6
20260904210840 85 16 0.0 0.0 0.00 0.00 0.00 64 1010.6
20260904210344 84 40 0.0 1.0 0.00 0.00 0.00 65 1010.7
20260904205854 84 88 0.0 1.0 0.00 0.00 0.00 65 1010.8
20260904205336 84 39 0.0 1.0 0.00 0.00 0.00 65 1010.7
20260904204839 84 82 0.0 0.0 0.00 0.00 0.00 67 1010.7
20260904204332 83 93 0.0 0.0 0.00 0.00 0.00 67 1010.7
20260904203832 83 90 0.0 0.0 0.00 0.00 0.00 67 1010.8
20260904203332 83 69 0.0 0.0 0.00 0.00 0.00 68 1010.7
20260904202825 83 67 0.0 0.0 0.00 0.00 0.00 68 1010.8
20260904202338 83 44 0.0 1.0 0.00 0.00 0.00 69 1010.8
20260904201817 82 96 0.0 1.0 0.00 0.00 0.00 69 1010.9
20260904201330 82 82 0.0 0.0 0.00 0.00 0.00 69 1010.8
20260904200832 82 148 0.0 0.0 0.00 0.00 0.00 70 1010.8
20260904200335 81 54 0.0 0.0 0.00 0.00 0.00 70 1011.0
20260904195843 81 123 0.0 1.0 0.00 0.00 0.00 70 1010.9
20260904195324 81 38 0.0 1.0 0.00 0.00 0.00 70 1011.0
20260904194838 80 66 0.0 1.0 0.00 0.00 0.00 72 1011.0
20260904194322 80 112 0.0 1.0 0.00 0.00 0.00 72 1011.1
20260904193820 79 32 0.0 2.0 0.00 0.00 0.00 72 1011.0
20260904193322 79 98 0.0 2.0 0.00 0.00 0.00 72 1011.0
20260904192835 79 94 0.0 4.0 0.00 0.00 0.00 73 1011.0
20260904192338 79 61 1.0 4.0 0.00 0.00 0.00 74 1011.1
20260904191839 79 42 0.0 0.0 0.00 0.00 0.00 77 1011.0
20260904191323 78 15 0.0 0.0 0.00 0.00 0.00 77 1011.1
20260904190823 78 40 0.0 1.0 0.00 0.00 0.00 78 1011.1
20260904190354 78 24 0.0 1.0 0.00 0.00 0.00 78 1011.1
20260904185824 78 30 0.0 0.0 0.00 0.00 0.00 79 1011.1
20260904185355 78 71 0.0 0.0 0.00 0.00 0.00 79 1011.2
20260904184818 77 10 0.0 0.0 0.00 0.00 0.00 78 1011.2
20260904184332 77 49 0.0 2.0 0.00 0.00 0.00 79 1011.2
20260904183838 77 25 0.0 2.0 0.00 0.00 0.00 79 1011.2
20260904183337 77 25 0.0 1.0 0.00 0.00 0.00 79 1011.3
20260904182820 77 35 0.0 1.0 0.00 0.00 0.00 79 1011.2
20260904182332 77 34 0.0 1.0 0.00 0.00 0.00 80 1011.3
20260904181833 77 32 0.0 1.0 0.00 0.00 0.00 80 1011.3
20260904181318 77 40 0.0 1.0 0.00 0.00 0.00 80 1011.3
20260904180832 76 28 0.0 0.0 0.00 0.00 0.00 82 1011.2
20260904180334 76 94 0.0 0.0 0.00 0.00 0.00 82 1011.2
20260904175844 76 124 0.0 1.0 0.00 0.00 0.00 82 1011.2
20260904175317 75 128 0.0 1.0 0.00 0.00 0.00 82 1011.2
20260904174821 75 27 0.0 2.0 0.00 0.00 0.00 82 1011.2
20260904174336 75 26 0.0 2.0 0.00 0.00 0.00 83 1011.2
20260904173838 75 93 0.0 1.0 0.00 0.00 0.00 83 1011.2
20260904173319 75 78 0.0 1.0 0.00 0.00 0.00 84 1011.2
20260904172833 75 13 0.0 2.0 0.00 0.00 0.00 85 1011.2
20260904172335 75 123 0.0 1.0 0.00 0.00 0.00 85 1011.2
20260904171835 75 33 0.0 5.0 0.00 0.00 0.00 86 1011.2
20260904171338 75 26 0.0 4.0 0.00 0.00 0.00 86 1011.0
20260904170824 75 32 0.0 4.0 0.00 0.00 0.00 87 1011.0
20260904170336 75 32 0.0 4.0 0.00 0.00 0.00 87 1011.0
20260904165818 75 11 1.0 4.0 0.00 0.00 0.00 87 1011.0
20260904165320 75 348 0.0 2.0 0.00 0.00 0.00 88 1011.0
20260904164832 75 5 0.0 2.0 0.00 0.00 0.00 88 1011.0
20260904164319 75 34 0.0 0.0 0.00 0.00 0.00 88 1010.9
20260904163823 74 34 0.0 0.0 0.00 0.00 0.00 88 1010.8
20260904163352 74 61 0.0 0.0 0.00 0.00 0.00 88 1010.7
20260904162825 74 87 0.0 0.0 0.00 0.00 0.00 88 1010.6
20260904162338 74 88 0.0 0.0 0.00 0.00 0.00 88 1010.7
20260904161841 74 82 0.0 0.0 0.00 0.00 0.00 88 1010.6
20260904161352 73 35 0.0 0.0 0.00 0.00 0.00 88 1010.6
20260904160902 73 46 0.0 0.0 0.00 0.00 0.00 87 1010.5
20260904160344 73 44 0.0 0.0 0.00 0.00 0.00 88 1010.4
20260904155823 73 41 0.0 0.0 0.00 0.00 0.00 88 1010.3
20260904155335 72 37 0.0 0.0 0.00 0.00 0.00 87 1010.3
20260904154838 72 67 0.0 0.0 0.00 0.00 0.00 88 1010.2
20260904154330 72 50 0.0 0.0 0.00 0.00 0.00 88 1010.3
20260904153829 72 91 0.0 0.0 0.00 0.00 0.00 88 1010.2
20260904153333 72 14 0.0 0.0 0.00 0.00 0.00 88 1010.2
20260904152855 72 11 0.0 0.0 0.00 0.00 0.00 88 1010.1
20260904152347 72 338 0.0 0.0 0.00 0.00 0.00 88 1010.1
20260904151828 72 13 0.0 0.0 0.00 0.00 0.00 88 1010.2
20260904151341 72 10 0.0 0.0 0.00 0.00 0.00 88 1010.1
20260904150844 72 5 0.0 0.0 0.00 0.00 0.00 88 1010.0
20260904150318 71 360 0.0 0.0 0.00 0.00 0.00 88 1010.0
20260904145828 71 10 0.0 0.0 0.00 0.00 0.00 88 1010.0
20260904145332 71 35 0.0 0.0 0.00 0.00 0.00 88 1009.9
20260904144836 71 30 0.0 0.0 0.00 0.00 0.00 88 1009.9
20260904144350 71 360 0.0 0.0 0.00 0.00 0.00 88 1009.8
20260904143830 71 360 0.0 0.0 0.00 0.00 0.00 88 1009.7
20260904143402 71 355 0.0 0.0 0.00 0.00 0.00 88 1009.7
20260904142836 71 96 0.0 0.0 0.00 0.00 0.00 88 1009.7
20260904142319 70 106 0.0 0.0 0.00 0.00 0.00 88 1009.6
20260904141821 70 106 0.0 0.0 0.00 0.00 0.00 88 1009.5
20260904141338 70 106 0.0 0.0 0.00 0.00 0.00 88 1009.5
20260904140839 70 106 0.0 0.0 0.00 0.00 0.00 88 1009.4
20260904140321 70 106 0.0 0.0 0.00 0.00 0.00 88 1009.3
20260904135832 70 107 0.0 0.0 0.00 0.00 0.00 88 1009.2
20260904135336 70 107 0.0 0.0 0.00 0.00 0.00 88 1009.1
20260904134839 70 107 0.0 0.0 0.00 0.00 0.00 88 1009.0
20260904134331 69 106 0.0 0.0 0.00 0.00 0.00 88 1009.0
20260904133901 69 103 0.0 0.0 0.00 0.00 0.00 88 1009.0
20260904133344 69 117 0.0 0.0 0.00 0.00 0.00 88 1009.1
20260904132838 69 99 0.0 0.0 0.00 0.00 0.00 88 1009.1
20260904132324 69 80 0.0 0.0 0.00 0.00 0.00 88 1009.1
20260904131822 69 78 0.0 0.0 0.00 0.00 0.00 88 1009.1
20260904131342 69 47 0.0 0.0 0.00 0.00 0.00 88 1009.0
20260904130824 69 107 0.0 0.0 0.00 0.00 0.00 88 1008.9
20260904130335 69 86 0.0 0.0 0.00 0.00 0.00 88 1009.0
20260904125818 69 86 0.0 0.0 0.00 0.00 0.00 88 1009.0
20260904125320 69 42 0.0 0.0 0.00 0.00 0.00 88 1009.0
20260904124853 69 76 0.0 0.0 0.00 0.00 0.00 88 1008.8
20260904124327 68 38 0.0 0.0 0.00 0.00 0.00 88 1008.9
20260904123835 68 17 0.0 0.0 0.00 0.00 0.00 88 1008.9
20260904123318 68 30 0.0 0.0 0.00 0.00 0.00 88 1008.8
20260904122844 68 38 0.0 0.0 0.00 0.00 0.00 88 1008.9
20260904122351 68 28 0.0 0.0 0.00 0.00 0.00 88 1008.9
20260904121834 68 16 0.0 0.0 0.00 0.00 0.00 88 1008.8
20260904121336 68 77 0.0 0.0 0.00 0.00 0.00 88 1008.7
20260904120818 68 45 0.0 0.0 0.00 0.00 0.00 88 1008.7
20260904120320 68 43 0.0 0.0 0.00 0.00 0.00 88 1008.7
20260904115831 68 49 0.0 0.0 0.00 0.00 0.00 88 1008.6
20260904115334 68 46 0.0 0.0 0.00 0.00 0.00 88 1008.4
20260904114838 68 63 0.0 0.0 0.00 0.00 0.00 88 1008.3
20260904114325 68 43 0.0 0.0 0.00 0.00 0.00 88 1008.4
20260904113832 68 89 0.0 0.0 0.00 0.00 0.00 88 1008.3
20260904113336 68 74 0.0 0.0 0.00 0.00 0.00 88 1008.4
20260904112852 68 80 0.0 0.0 0.00 0.00 0.00 88 1008.4
20260904112316 69 80 0.0 0.0 0.00 0.00 0.00 88 1008.3
20260904111816 69 82 0.0 0.0 0.00 0.00 0.00 88 1008.1
20260904111329 69 74 0.0 0.0 0.00 0.00 0.00 88 1008.1
20260904110840 69 79 0.0 0.0 0.00 0.00 0.00 88 1008.1
20260904110342 69 101 0.0 0.0 0.00 0.00 0.00 88 1008.0
20260904105825 69 90 0.0 0.0 0.00 0.00 0.00 88 1008.0
20260904105357 69 79 0.0 0.0 0.00 0.00 0.00 88 1008.0
20260904104839 69 86 0.0 0.0 0.00 0.00 0.00 88 1007.9
20260904104323 69 64 0.0 0.0 0.00 0.00 0.00 88 1007.9
20260904103823 69 87 0.0 0.0 0.00 0.00 0.00 88 1008.0
20260904103334 69 51 0.0 0.0 0.00 0.00 0.00 88 1008.0
20260904102848 69 123 0.0 1.0 0.00 0.00 0.00 88 1008.0
20260904102327 70 95 0.0 1.0 0.00 0.00 0.00 88 1008.1
20260904101831 70 50 0.0 4.0 0.00 0.00 0.00 88 1008.0
20260904101334 70 24 0.0 4.0 0.00 0.00 0.00 88 1007.9
20260904100835 70 69 0.0 4.0 0.00 0.00 0.00 88 1008.0
20260904100317 70 35 0.0 0.0 0.00 0.00 0.00 88 1008.0
20260904095828 71 80 0.0 1.0 0.00 0.00 0.00 88 1008.0
20260904095341 71 72 0.0 1.0 0.00 0.00 0.00 88 1007.9
20260904094842 71 5 0.0 1.0 0.00 0.00 0.00 88 1007.9
20260904094327 72 130 0.0 1.0 0.00 0.00 0.00 88 1007.7